[[{"header":{"parameterUnit":"m.s-1","parameterCategory":2,"la1":30.2991,"la2":30.254,"lo1":-89.0895,"lo2":-89.0444,"dy":0.0017,"dx":0.0017,"nx":28,"ny":28,"refTime":"2024-10-10T03:00:00:Z","depth":"0","parameterNumber":2,"parameterNumberName":"U-component_of_CURRENTS"},"data":[0,0,0,0,0,0,0,0,0,0,0,0,0,0,0,0,0,0,0,0,0,0,0,0,0,0,0,0,0,0,0,0,0,0,0,0,0,0,0,0,0,0,0,0,0,0,0,0,0,0,0,0,0,0,0,0,0,0,0.3058,0.3057,0,0.2929,0.2928,0.2926,0.2838,0.2838,0.2837,0.2837,0.2762,0.276,0.2759,0,0,0,0,0,0,0,0,0,0,0,0,0,0.317,0.3169,0.3058,0.3057,0.3055,0.2929,0.2927,0.2926,0.2838,0.2838,0.2837,0.2837,0.2762,0.276,0.2759,0,0,0,0,0,0,0,0,0,0,0,0,0,0.3088,0.3168,0.3058,0.2997,0.2991,0.293,0.2927,0.2925,0.2839,0.2838,0.2837,0.2836,0.2763,0.276,0.2758,0.276,0,0,0.2751,0.275,0,0,0,0,0,0,0,0,0.3093,0.3084,0.3008,0.3001,0.2994,0.29,0.2939,0.2873,0.2839,0.2895,0.2837,0.2836,0.2814,0.2808,0.2783,0.2757,0.2754,0.2751,0.275,0.2749,0.2748,0,0,0,0,0,0,0,0.3099,0.3089,0.3006,0.3006,0.2998,0.2956,0.2944,0.2926,0.2861,0.289,0.2884,0.2871,0.281,0.2785,0.2781,0.2752,0.2751,0.2749,0.2748,0.2747,0.2769,0.277,0,0,0,0,0,0,0.3121,0.3095,0.301,0.3002,0.3044,0.2955,0.2941,0.293,0.286,0.2848,0.2872,0.2868,0.2789,0.2783,0.2778,0.2813,0.2749,0.2747,0.2745,0.2767,0.2769,0.2771,0,0,0,0,0,0,0.3124,0.3115,0.3015,0.3046,0.3031,0.2955,0.2942,0.2928,0.2906,0.2846,0.2835,0.2866,0.2789,0.2781,0.2778,0.2808,0.2746,0.2744,0.2764,0.2767,0.277,0.286,0,0,0,0,0,0,0.3128,0.3117,0.3119,0.3048,0.303,0.2992,0.2942,0.2926,0.29,0.2893,0.2837,0.2828,0.2787,0.2782,0.2776,0.2804,0.2742,0.2762,0.2766,0.2769,0.2855,0.2866,0.2875,0,0,0,0,0,0.3132,0.3136,0.312,0.311,0.3035,0.2993,0.2981,0.2922,0.2901,0.2899,0.2868,0.283,0.2801,0.2782,0.2774,0.2802,0.276,0.2765,0.2769,0.285,0.2863,0.2875,0,0,0,0,0,0,0.3174,0.3125,0.3107,0.3093,0.3055,0.2979,0.297,0.2935,0.2906,0.2905,0.2849,0.2839,0.2849,0.282,0.28,0.2822,0.2777,0.278,0.2842,0.2854,0.2864,0.2872,0.274,0,0,0,0,0,0.3191,0.3191,0.3131,0.3125,0.3109,0.3046,0.3023,0.2988,0.2949,0.2933,0.2894,0.2868,0.2861,0.2853,0.2835,0.2844,0.2842,0.2861,0.2871,0.288,0.2884,0.2929,0.2944,0.2785,0.2785,0.2785,0,0,0.3206,0.3181,0.3179,0.3136,0.3101,0.3083,0.303,0.3007,0.2997,0.2935,0.292,0.2902,0.2873,0.2883,0.2885,0.2861,0.2925,0.2886,0.2893,0.2892,0.2935,0.295,0.2964,0.2788,0.2788,0.2787,0,0,0.3236,0.3217,0.3223,0.3198,0.3159,0.3122,0.3124,0.3061,0.3041,0.3032,0.2993,0.3002,0.2967,0.2959,0.2951,0.3013,0.298,0.3005,0.3058,0.3102,0.3115,0.3127,0.3147,0.316,0.3008,0.3008,0.3008,0,0.3258,0.3246,0.3219,0.3213,0.3192,0.3147,0.3138,0.3119,0.3066,0.3065,0.3045,0.303,0.3009,0.3032,0.3051,0.3037,0.3044,0.3011,0.3116,0.3127,0.3138,0.3156,0.3168,0.3013,0.3012,0.3012,0.3011,0,0.3281,0.3271,0.3274,0.3256,0.3238,0.3226,0.3192,0.3188,0.3167,0.3145,0.3163,0.3141,0.3132,0.3136,0.3108,0.317,0.3145,0.3126,0.3084,0.3159,0.3173,0.3185,0.302,0.3018,0.3016,0.3015,0,0,0.3298,0.3294,0.3289,0.3279,0.3255,0.3233,0.3251,0.3237,0.3246,0.3235,0.3251,0.3259,0.3249,0.3241,0.3218,0.3253,0.3337,0.3222,0.3222,0.3241,0.3421,0.3334,0.3338,0.3336,0.3338,0.334,0.3402,0,0.3311,0.332,0.331,0.3301,0.3288,0.3272,0.3283,0.328,0.328,0.3293,0.3307,0.3312,0.3288,0.3289,0.333,0.3335,0.3372,0.3321,0.3346,0.3347,0.326,0.335,0.321,0.3248,0.3414,0.3416,0.3417,0,0.3301,0.331,0.3317,0.3306,0.3299,0.3298,0.3302,0.3306,0.334,0.3348,0.3381,0.3378,0.3432,0.3397,0.3471,0.3438,0.344,0.3443,0.3445,0.3339,0.3282,0.3199,0.3262,0.3185,0.3435,0.3433,0.3432,0,0.3285,0.3289,0.3299,0.3294,0.3296,0.3301,0.3301,0.3324,0.3339,0.3383,0.3416,0.3462,0.35,0.3527,0.3546,0.3513,0.3623,0.3576,0.3498,0.3491,0.3363,0.334,0.335,0.3632,0.3631,0.3631,0.3631,0,0.327,0.3263,0.3293,0.329,0.3293,0.3294,0.3303,0.3322,0.3368,0.3391,0.344,0.348,0.3539,0.3598,0.359,0.3595,0.3667,0.3526,0.3513,0.3389,0.3369,0.3284,0.3242,0.3633,0.3633,0.3633,0.3632,0,0.3232,0.3257,0.3256,0.3278,0.3279,0.3278,0.3295,0.3306,0.3365,0.3407,0.3429,0.3533,0.36,0.3645,0.3701,0.3652,0.3548,0.3632,0.3472,0.3437,0.3238,0.3205,0.3085,0.2992,0.354,0.3539,0.3537,0,0.3213,0.3214,0.3242,0.3235,0.3241,0.3243,0.324,0.3291,0.3309,0.3421,0.3442,0.355,0.3595,0.3668,0.3611,0.3593,0.3501,0.3429,0.3331,0.3226,0.3182,0.3072,0.2995,0.3204,0.32,0.3197,0.3194,0,0.3166,0.3184,0.3192,0.3192,0.3187,0.3184,0.3192,0.321,0.3269,0.3327,0.3399,0.3458,0.3531,0.346,0.3454,0.3416,0.3251,0.3356,0.3305,0.2968,0.2794,0.2698,0.3158,0.3165,0.3168,0.317,0.3172,0.3173,0.3119,0.3119,0.313,0.3118,0.311,0.3092,0.3054,0.3088,0.3112,0.3141,0.328,0.3306,0.3314,0.328,0.3234,0.3038,0.3033,0.2908,0.2894,0.2806,0.2654,0.3036,0.2988,0.299,0.2991,0.2993,0.2994,0,0.3036,0.3045,0.304,0.3008,0.295,0.2987,0.2981,0.2923,0.2895,0.2993,0.3035,0.301,0.2953,0.2927,0.2753,0.2608,0.2499,0.2526,0.2361,0.2321,0.272,0.2643,0.2448,0.2449,0.2449,0.2449,0.2449,0.2449,0.2989,0.2959,0.2963,0.2844,0.2805,0.2693,0.2662,0.2627,0.266,0.2606,0.258,0.2632,0.2667,0.2579,0.24,0.233,0.2155,0.2027,0.2046,0.2356,0.2391,0.2424,0.2344,0.209,0.209,0.1551,0.1547,0.1544]},{"header":{"parameterUnit":"m.s-1","parameterCategory":2,"la1":30.2991,"la2":30.254,"lo1":-89.0895,"lo2":-89.0444,"dy":0.0017,"dx":0.0017,"nx":28,"ny":28,"refTime":"2024-10-10T03:00:00:Z","depth":"0","parameterNumber":3,"parameterNumberName":"V-component_of_CURRENTS"},"data":[0,0,0,0,0,0,0,0,0,0,0,0,0,0,0,0,0,0,0,0,0,0,0,0,0,0,0,0,0,0,0,0,0,0,0,0,0,0,0,0,0,0,0,0,0,0,0,0,0,0,0,0,0,0,0,0,0,0,-0.0405,-0.0404,0,-0.0346,-0.0345,-0.0345,-0.0324,-0.0324,-0.0324,-0.0324,-0.0333,-0.0333,-0.0333,0,0,0,0,0,0,0,0,0,0,0,0,0,-0.0449,-0.0449,-0.0405,-0.0404,-0.0403,-0.0346,-0.0345,-0.0345,-0.0324,-0.0324,-0.0324,-0.0324,-0.0333,-0.0333,-0.0333,0,0,0,0,0,0,0,0,0,0,0,0,0,-0.0417,-0.0449,-0.0405,-0.0384,-0.0381,-0.0346,-0.0345,-0.0344,-0.0324,-0.0324,-0.0324,-0.0324,-0.0333,-0.0333,-0.0333,-0.0335,0,0,-0.0334,-0.0334,0,0,0,0,0,0,0,0,-0.0418,-0.0415,-0.0388,-0.0385,-0.0382,-0.034,-0.0364,-0.0344,-0.0324,-0.0348,-0.0324,-0.0324,-0.034,-0.034,-0.0331,-0.0335,-0.0336,-0.0334,-0.0335,-0.0335,-0.0335,0,0,0,0,0,0,0,-0.0421,-0.0417,-0.0384,-0.0387,-0.0384,-0.036,-0.0356,-0.0359,-0.0348,-0.0346,-0.0344,-0.0334,-0.0339,-0.0331,-0.0331,-0.0336,-0.0334,-0.0335,-0.0335,-0.0335,-0.0342,-0.0342,0,0,0,0,0,0,-0.0426,-0.042,-0.0386,-0.0382,-0.0398,-0.0359,-0.0355,-0.0356,-0.0346,-0.0344,-0.0334,-0.0333,-0.033,-0.0331,-0.0332,-0.0323,-0.0335,-0.0335,-0.0335,-0.0342,-0.0342,-0.0342,0,0,0,0,0,0,-0.0427,-0.0424,-0.0388,-0.0397,-0.039,-0.0359,-0.0359,-0.0354,-0.0341,-0.0336,-0.0335,-0.0325,-0.033,-0.0331,-0.0335,-0.0324,-0.0335,-0.0335,-0.0342,-0.0342,-0.0342,-0.0313,0,0,0,0,0,0,-0.0429,-0.0425,-0.043,-0.0398,-0.039,-0.036,-0.0359,-0.0353,-0.0334,-0.0332,-0.0328,-0.0329,-0.033,-0.0335,-0.0335,-0.0325,-0.0336,-0.0342,-0.0342,-0.0342,-0.0314,-0.0312,-0.0311,0,0,0,0,0,-0.0431,-0.0434,-0.0431,-0.0426,-0.0397,-0.0359,-0.0353,-0.0332,-0.0334,-0.0323,-0.0328,-0.0329,-0.0335,-0.0335,-0.0336,-0.0325,-0.0342,-0.0342,-0.0342,-0.0315,-0.0313,-0.0311,0,0,0,0,0,0,-0.0455,-0.0431,-0.0427,-0.0423,-0.0391,-0.0355,-0.0344,-0.0331,-0.0324,-0.0329,-0.033,-0.0331,-0.0333,-0.0336,-0.0335,-0.0329,-0.0338,-0.0339,-0.0317,-0.0315,-0.0313,-0.0289,-0.0336,0,0,0,0,0,-0.0463,-0.0461,-0.0426,-0.0423,-0.0407,-0.0377,-0.0361,-0.0345,-0.0331,-0.0327,-0.0324,-0.0328,-0.0333,-0.033,-0.0337,-0.033,-0.0325,-0.0325,-0.0323,-0.0321,-0.0303,-0.0302,-0.0298,-0.0342,-0.0342,-0.0342,0,0,-0.0474,-0.0458,-0.0459,-0.0428,-0.0405,-0.0368,-0.0368,-0.034,-0.0311,-0.0332,-0.0307,-0.0326,-0.0333,-0.0328,-0.0328,-0.0327,-0.0305,-0.0321,-0.0319,-0.0301,-0.0301,-0.0297,-0.0293,-0.0342,-0.0342,-0.0342,0,0,-0.0471,-0.0476,-0.0461,-0.0432,-0.0392,-0.0369,-0.036,-0.0323,-0.031,-0.0291,-0.0304,-0.0316,-0.0311,-0.0314,-0.0316,-0.0309,-0.0302,-0.0311,-0.0271,-0.0271,-0.0267,-0.0263,-0.0243,-0.0238,-0.0302,-0.0302,-0.0302,0,-0.0483,-0.0456,-0.0449,-0.0413,-0.0382,-0.0367,-0.0324,-0.0307,-0.0278,-0.0262,-0.0281,-0.0279,-0.0301,-0.0284,-0.0287,-0.0303,-0.0292,-0.0278,-0.0267,-0.0264,-0.026,-0.024,-0.0235,-0.03,-0.0301,-0.0301,-0.0301,0,-0.045,-0.0428,-0.0414,-0.0366,-0.0336,-0.0301,-0.0266,-0.0247,-0.0238,-0.0217,-0.0205,-0.0236,-0.023,-0.0247,-0.0265,-0.0249,-0.0245,-0.0272,-0.0269,-0.0254,-0.0234,-0.0229,-0.0298,-0.0299,-0.0299,-0.03,0,0,-0.0454,-0.0404,-0.0393,-0.0354,-0.0305,-0.0267,-0.0233,-0.018,-0.0138,-0.0145,-0.0095,-0.0137,-0.0153,-0.0158,-0.0188,-0.0192,-0.0178,-0.0216,-0.0216,-0.0186,-0.0152,-0.0169,-0.0165,-0.0199,-0.0198,-0.0197,-0.0145,0,-0.0418,-0.0354,-0.0334,-0.0257,-0.0212,-0.0189,-0.0144,-0.0103,-0.0082,-0.0036,-0.0068,-0.0048,-0.0117,-0.0116,-0.0134,-0.0162,-0.0163,-0.0188,-0.0178,-0.0177,-0.0188,-0.016,-0.0137,-0.009,-0.014,-0.0139,-0.0138,0,-0.0363,-0.0328,-0.0262,-0.0182,-0.0157,-0.0114,-0.0032,0.001,0.0057,0.0068,0.0071,0.0058,0.0048,-0.0018,-0.0049,-0.0057,-0.01,-0.0129,-0.0128,-0.0146,-0.0184,-0.0116,-0.0079,-0.0186,-0.013,-0.0131,-0.0131,0,-0.0335,-0.026,-0.0208,-0.0182,-0.0103,-0.0065,-0.0019,0.004,0.01,0.0135,0.018,0.0157,0.0167,0.0103,0.0028,-0.0003,0.0008,-0.0046,-0.0096,-0.0096,-0.0076,-0.0077,-0.0133,-0.0065,-0.0065,-0.0065,-0.0065,0,-0.0286,-0.0234,-0.0191,-0.0155,-0.0061,-0.0028,0.0077,0.011,0.0182,0.0276,0.0234,0.03,0.0198,0.019,0.0091,0.0029,0.0053,-0.0069,-0.0082,-0.0066,-0.0066,-0.0159,-0.0235,-0.0063,-0.0064,-0.0064,-0.0064,0,-0.0251,-0.0232,-0.0152,-0.0078,-0.0044,0.0024,0.0148,0.0226,0.0267,0.0386,0.0403,0.0429,0.0418,0.0322,0.0245,0.013,-0.0004,0.002,0.0056,0.0045,-0.0129,-0.0204,-0.0261,-0.0312,-0.0021,-0.0021,-0.0021,0,-0.0227,-0.0191,-0.0096,-0.0032,0.0007,0.0108,0.0192,0.026,0.035,0.0477,0.0548,0.0575,0.0629,0.0513,0.0322,0.0176,0.0038,0.0066,-0.0013,-0.0117,-0.0211,-0.0269,-0.0312,0.0036,0.0036,0.0037,0.0037,0,-0.0169,-0.0144,-0.0081,0.0039,0.0133,0.0247,0.0365,0.0447,0.0545,0.0654,0.0788,0.0841,0.0746,0.0625,0.0406,0.0277,-0.0015,0.0066,-0.0047,-0.017,-0.0229,-0.029,-0.0011,0.004,0.004,0.0039,0.0039,0.0039,-0.0116,-0.0063,0.0019,0.0138,0.0249,0.0381,0.0482,0.0613,0.077,0.0953,0.0977,0.1111,0.089,0.0609,0.0405,0.0039,0.0012,-0.0084,-0.0161,-0.0206,-0.028,0.0009,0.0035,0.0035,0.0034,0.0034,0.0034,0,-0.0035,0.0019,0.0125,0.0268,0.0397,0.0436,0.0606,0.0714,0.0907,0.1103,0.1236,0.1247,0.0971,0.0642,0.0136,-0.0136,-0.0246,-0.0285,-0.0361,-0.0393,-0.0125,-0.015,-0.0156,-0.0156,-0.0156,-0.0156,-0.0155,-0.0155,0.0015,0.0116,0.0159,0.037,0.0476,0.0638,0.0731,0.0889,0.1055,0.1312,0.1452,0.1532,0.1275,0.0383,-0.0208,-0.0345,-0.0549,-0.059,-0.0696,-0.0521,-0.0508,-0.0496,-0.0537,-0.0624,-0.0625,-0.0916,-0.0919,-0.0921]}],[{"header":{"parameterUnit":"m.s-1","parameterCategory":2,"la1":30.2991,"la2":30.254,"lo1":-89.0895,"lo2":-89.0444,"dy":0.0017,"dx":0.0017,"nx":28,"ny":28,"refTime":"2024-10-10T03:00:00:Z","depth":"2","parameterNumber":2,"parameterNumberName":"U-component_of_CURRENTS"},"data":[0,0,0,0,0,0,0,0,0,0,0,0,0,0,0,0,0,0,0,0,0,0,0,0,0,0,0,0,0,0,0,0,0,0,0,0,0,0,0,0,0,0,0,0,0,0,0,0,0,0,0,0,0,0,0,0,0,0,0.2097,0.2098,0,0.2107,0.2107,0.2107,0.2105,0.2105,0.2105,0.2105,0.2122,0.2123,0.2123,0,0,0,0,0,0,0,0,0,0,0,0,0,0.2121,0.212,0.2097,0.2098,0.2098,0.2107,0.2107,0.2107,0.2105,0.2105,0.2105,0.2105,0.2122,0.2123,0.2123,0,0,0,0,0,0,0,0,0,0,0,0,0,0.2115,0.212,0.2097,0.2101,0.2102,0.2107,0.2107,0.2107,0.2105,0.2105,0.2105,0.2105,0.2122,0.2123,0.2123,0.212,0,0,0.2124,0.2124,0,0,0,0,0,0,0,0,0.2115,0.2114,0.21,0.2101,0.2102,0.2108,0.2122,0.2113,0.2105,0.2099,0.2105,0.2106,0.2121,0.2121,0.2117,0.2121,0.2122,0.2124,0.2125,0.2125,0.2125,0,0,0,0,0,0,0,0.2116,0.2114,0.2097,0.2101,0.2102,0.2118,0.2117,0.212,0.2105,0.21,0.2101,0.2108,0.2121,0.2116,0.2117,0.2122,0.2124,0.2125,0.2125,0.2125,0.2191,0.2192,0,0,0,0,0,0,0.212,0.2114,0.2097,0.2098,0.2114,0.2118,0.2116,0.2103,0.2105,0.2107,0.2108,0.2108,0.2115,0.2117,0.2118,0.2177,0.2125,0.2125,0.2125,0.2189,0.2191,0.2193,0,0,0,0,0,0,0.212,0.2117,0.2096,0.2111,0.211,0.2117,0.2102,0.2103,0.2126,0.2112,0.2113,0.2134,0.2116,0.2117,0.2153,0.2175,0.2125,0.2126,0.2187,0.219,0.2192,0.2255,0,0,0,0,0,0,0.212,0.2116,0.2123,0.211,0.2109,0.2128,0.2103,0.2103,0.213,0.2131,0.2134,0.2134,0.2116,0.2153,0.2154,0.2175,0.2126,0.2186,0.2188,0.2191,0.2251,0.2259,0.2266,0,0,0,0,0,0.212,0.2127,0.2123,0.2122,0.2112,0.213,0.2132,0.2135,0.2131,0.2154,0.2157,0.2136,0.2171,0.2155,0.2156,0.2177,0.2184,0.2188,0.2191,0.2248,0.2258,0.2266,0,0,0,0,0,0,0.2143,0.2127,0.2122,0.2123,0.2141,0.2132,0.2147,0.2154,0.2172,0.217,0.2159,0.2161,0.2194,0.2185,0.2168,0.2205,0.2172,0.2176,0.2215,0.2224,0.2232,0.2229,0.2126,0,0,0,0,0,0.215,0.2136,0.2146,0.2142,0.2156,0.2157,0.217,0.2173,0.2181,0.2189,0.2188,0.2191,0.2203,0.2216,0.2215,0.2245,0.2246,0.2258,0.2266,0.2272,0.2271,0.2313,0.2324,0.2204,0.2203,0.2203,0,0,0.2149,0.2142,0.2132,0.2146,0.2149,0.2176,0.2164,0.2185,0.221,0.2188,0.2217,0.2216,0.2217,0.2243,0.2257,0.2243,0.2308,0.2277,0.2282,0.2277,0.2317,0.2329,0.2339,0.2206,0.2205,0.2205,0,0,0.2151,0.2144,0.2148,0.2169,0.2193,0.2198,0.2216,0.2227,0.2239,0.2276,0.2259,0.2281,0.23,0.2299,0.2304,0.2358,0.2343,0.2359,0.2399,0.244,0.245,0.2459,0.2478,0.2488,0.2367,0.2367,0.2367,0,0.2158,0.2155,0.2158,0.2186,0.2198,0.2216,0.224,0.2265,0.2285,0.2295,0.2298,0.2328,0.2325,0.2361,0.2375,0.2374,0.239,0.2364,0.245,0.2458,0.2466,0.2484,0.2494,0.237,0.237,0.2369,0.2369,0,0.2178,0.2183,0.219,0.2215,0.2242,0.2258,0.2296,0.2323,0.234,0.2355,0.2397,0.2404,0.2426,0.2427,0.2419,0.2471,0.2461,0.2452,0.2426,0.2482,0.2497,0.2507,0.2375,0.2374,0.2373,0.2372,0,0,0.2153,0.2192,0.2192,0.2212,0.2252,0.2276,0.2319,0.2359,0.24,0.2427,0.2473,0.2494,0.2502,0.2509,0.2505,0.2533,0.2601,0.2521,0.2522,0.2539,0.2687,0.2618,0.2621,0.2615,0.2617,0.2619,0.2675,0,0.216,0.2199,0.2217,0.2258,0.2283,0.2311,0.2357,0.24,0.2439,0.2494,0.2514,0.2554,0.2538,0.2555,0.2591,0.259,0.2629,0.2585,0.263,0.2631,0.2562,0.2631,0.242,0.2447,0.2684,0.2686,0.2687,0,0.2176,0.2194,0.2223,0.2277,0.2293,0.2328,0.2391,0.2437,0.2512,0.2545,0.2595,0.2618,0.266,0.2647,0.2703,0.2681,0.2696,0.2696,0.2698,0.2616,0.258,0.2429,0.2456,0.2702,0.2701,0.27,0.2699,0,0.2147,0.2202,0.2214,0.223,0.2299,0.2321,0.2367,0.2442,0.2492,0.2574,0.2624,0.2682,0.2726,0.2752,0.2765,0.2745,0.2825,0.2797,0.2752,0.2747,0.2563,0.2538,0.2856,0.2856,0.2856,0.2856,0.2856,0,0.2126,0.2142,0.2208,0.2211,0.2265,0.2318,0.2383,0.2439,0.2529,0.2581,0.2652,0.27,0.276,0.2811,0.2804,0.2811,0.2868,0.2769,0.2765,0.2579,0.2556,0.2767,0.2756,0.2858,0.2858,0.2857,0.2857,0,0.2067,0.21,0.2138,0.2212,0.2245,0.2283,0.2391,0.2434,0.2532,0.2604,0.2629,0.2741,0.2787,0.2841,0.2885,0.2861,0.286,0.2853,0.2621,0.2588,0.2741,0.2733,0.2798,0.2796,0.2795,0.2794,0.2793,0,0.2031,0.2049,0.2133,0.2155,0.218,0.2254,0.2293,0.241,0.2451,0.2598,0.2614,0.2723,0.2754,0.282,0.2791,0.2789,0.285,0.2593,0.2509,0.275,0.274,0.2734,0.2728,0.2293,0.2288,0.2284,0.2281,0,0.1983,0.2019,0.2033,0.2093,0.2134,0.2182,0.225,0.2293,0.2404,0.2467,0.2523,0.2567,0.266,0.2562,0.2604,0.2563,0.2569,0.2508,0.284,0.234,0.2279,0.2267,0.2277,0.2244,0.2248,0.225,0.2252,0.2254,0.1946,0.1949,0.1985,0.2026,0.2075,0.2084,0.2086,0.2138,0.2181,0.223,0.2342,0.2337,0.2393,0.2326,0.2258,0.2215,0.2386,0.227,0.2281,0.2297,0.2228,0.2167,0.2098,0.2101,0.2103,0.2105,0.2107,0,0.19,0.1901,0.1928,0.1951,0.1952,0.2015,0.2032,0.1987,0.1966,0.2026,0.2053,0.1904,0.1876,0.1936,0.1817,0.1822,0.1788,0.1744,0.1679,0.1719,0.1753,0.1653,0.1372,0.137,0.1367,0.1365,0,0,0.1865,0.184,0.1841,0.1819,0.1842,0.1783,0.1764,0.1706,0.1708,0.1636,0.1619,0.1775,0.1873,0.1589,0.1565,0.1445,0.1562,0.1386,0.1981,0.1944,0.1975,0.2071,0.1964,0,0,0,0,0]},{"header":{"parameterUnit":"m.s-1","parameterCategory":2,"la1":30.2991,"la2":30.254,"lo1":-89.0895,"lo2":-89.0444,"dy":0.0017,"dx":0.0017,"nx":28,"ny":28,"refTime":"2024-10-10T03:00:00:Z","depth":"2","parameterNumber":3,"parameterNumberName":"V-component_of_CURRENTS"},"data":[0,0,0,0,0,0,0,0,0,0,0,0,0,0,0,0,0,0,0,0,0,0,0,0,0,0,0,0,0,0,0,0,0,0,0,0,0,0,0,0,0,0,0,0,0,0,0,0,0,0,0,0,0,0,0,0,0,0,0.0221,0.0221,0,0.02,0.0199,0.0199,0.0181,0.0181,0.018,0.018,0.0144,0.0143,0.0142,0,0,0,0,0,0,0,0,0,0,0,0,0,0.0198,0.0199,0.0221,0.0221,0.022,0.02,0.0199,0.0199,0.0181,0.0181,0.018,0.018,0.0144,0.0143,0.0142,0,0,0,0,0,0,0,0,0,0,0,0,0,0.0196,0.0199,0.0221,0.0208,0.0207,0.02,0.0199,0.0199,0.0181,0.0181,0.018,0.018,0.0144,0.0143,0.0142,0.0144,0,0,0.0139,0.0138,0,0,0,0,0,0,0,0,0.0196,0.0197,0.021,0.0209,0.0207,0.0192,0.0178,0.018,0.0181,0.0192,0.018,0.018,0.0158,0.0156,0.0154,0.0142,0.0141,0.0139,0.0138,0.0138,0.0137,0,0,0,0,0,0,0,0.0197,0.0198,0.0213,0.021,0.0208,0.0187,0.0187,0.0178,0.0178,0.0191,0.0189,0.0186,0.0157,0.0155,0.0153,0.014,0.0139,0.0138,0.0137,0.0137,0.0123,0.0123,0,0,0,0,0,0,0.0201,0.0198,0.0214,0.0213,0.02,0.0188,0.0187,0.0198,0.0178,0.0175,0.0186,0.0185,0.0157,0.0154,0.0152,0.0156,0.0138,0.0137,0.0136,0.0123,0.0123,0.0123,0,0,0,0,0,0,0.0201,0.0203,0.0215,0.0203,0.0203,0.0189,0.02,0.0198,0.0188,0.0175,0.0171,0.0178,0.0157,0.0153,0.0145,0.0154,0.0136,0.0135,0.0122,0.0123,0.0123,0.0161,0,0,0,0,0,0,0.02,0.0203,0.0207,0.0204,0.0204,0.0212,0.0201,0.0198,0.0187,0.0185,0.0167,0.0163,0.0156,0.0146,0.0144,0.0152,0.0134,0.0122,0.0123,0.0123,0.016,0.0163,0.0166,0,0,0,0,0,0.02,0.0213,0.0208,0.0209,0.0212,0.0212,0.021,0.0198,0.0187,0.0187,0.0175,0.0164,0.0148,0.0146,0.0143,0.0151,0.0122,0.0122,0.0123,0.0159,0.0163,0.0166,0,0,0,0,0,0,0.0202,0.0212,0.0206,0.0221,0.0215,0.0209,0.0209,0.0195,0.0186,0.0185,0.0166,0.0163,0.0161,0.0148,0.0146,0.0148,0.0133,0.0133,0.0161,0.0165,0.0168,0.0182,0.0134,0,0,0,0,0,0.0205,0.0224,0.0217,0.023,0.0227,0.0215,0.021,0.0204,0.0196,0.0191,0.018,0.0168,0.0162,0.0156,0.0151,0.0149,0.0132,0.0152,0.0155,0.0157,0.0166,0.0149,0.0151,0.0125,0.0125,0.0125,0,0,0.0214,0.0218,0.023,0.0232,0.0228,0.0235,0.0212,0.0212,0.0218,0.0189,0.0194,0.0179,0.0164,0.0168,0.0165,0.0156,0.0154,0.0158,0.0161,0.0168,0.015,0.0152,0.0154,0.0126,0.0126,0.0126,0,0,0.0241,0.024,0.0262,0.0258,0.0252,0.0247,0.0245,0.0237,0.0232,0.0229,0.0216,0.0207,0.0191,0.0191,0.0185,0.0199,0.0172,0.0192,0.0218,0.0201,0.0203,0.0205,0.018,0.0179,0.0192,0.0192,0.0192,0,0.0247,0.0274,0.0265,0.0277,0.028,0.0254,0.0271,0.0263,0.0253,0.0258,0.0235,0.0223,0.0206,0.0217,0.022,0.0208,0.0188,0.0206,0.0205,0.0207,0.0208,0.0182,0.018,0.0194,0.0194,0.0194,0.0194,0,0.0288,0.0302,0.0313,0.0327,0.0326,0.0338,0.0325,0.0325,0.0309,0.0301,0.0301,0.0275,0.0268,0.0258,0.0241,0.0246,0.0225,0.0213,0.0198,0.0213,0.0184,0.0182,0.0197,0.0196,0.0196,0.0195,0,0,0.0324,0.0342,0.0346,0.0359,0.0355,0.0364,0.0374,0.0382,0.0396,0.0367,0.0383,0.0358,0.0335,0.0327,0.0302,0.0284,0.0265,0.0251,0.0249,0.0229,0.0218,0.0197,0.0192,0.0249,0.0249,0.0249,0.0192,0,0.036,0.0403,0.0399,0.0433,0.0452,0.0435,0.045,0.0449,0.0441,0.0447,0.0412,0.0413,0.0362,0.0358,0.033,0.0292,0.0262,0.0281,0.0204,0.0201,0.0184,0.019,0.0207,0.0157,0.019,0.0189,0.0189,0,0.0399,0.0426,0.0476,0.0496,0.0503,0.0514,0.0539,0.055,0.0547,0.0541,0.0524,0.049,0.0464,0.0414,0.034,0.0352,0.0286,0.0244,0.0241,0.021,0.0177,0.0148,0.0152,0.0185,0.0185,0.0186,0.0186,0,0.044,0.0473,0.0523,0.053,0.0552,0.0567,0.0573,0.058,0.0609,0.0602,0.0618,0.0564,0.0551,0.0463,0.036,0.0349,0.0274,0.0248,0.0165,0.0162,0.0156,0.0153,0.0189,0.0189,0.0189,0.0189,0.0189,0,0.0484,0.0515,0.0545,0.0569,0.0617,0.0612,0.0661,0.066,0.0685,0.0729,0.0668,0.0686,0.0562,0.0497,0.0388,0.0273,0.0289,0.0173,0.015,0.0169,0.0168,0.0178,0.0178,0.0187,0.0187,0.0188,0.0188,0,0.0522,0.0546,0.0598,0.0632,0.0639,0.0676,0.0713,0.0757,0.0766,0.0823,0.0825,0.0783,0.07,0.0565,0.0432,0.0322,0.0208,0.0158,0.0184,0.0164,0.0097,0.0099,0.0061,0.006,0.0059,0.0058,0.0058,0,0.0549,0.0584,0.0643,0.0679,0.0694,0.0741,0.0778,0.0797,0.0853,0.0886,0.0926,0.086,0.0829,0.0623,0.0423,0.0228,0.0202,0.0106,0.0087,0.0105,0.0085,0.0089,0.0093,0.0088,0.0088,0.0088,0.0087,0,0.0591,0.0616,0.0668,0.0736,0.0784,0.085,0.09,0.0954,0.0994,0.1039,0.108,0.1054,0.0861,0.067,0.0399,0.0267,0.0138,0.0093,0.0113,0.012,0.0126,0.0109,0.0112,0.0085,0.0085,0.0085,0.0085,0.0085,0.0626,0.0667,0.0729,0.0797,0.0858,0.094,0.0998,0.1068,0.1152,0.1213,0.1187,0.115,0.0933,0.0592,0.0358,0.0111,0.0127,0.0033,0.0036,0.0038,0.0054,0.0058,0.0006,0.0006,0.0006,0.0006,0.0006,0,0.0657,0.0702,0.0771,0.0859,0.093,0.0953,0.107,0.1138,0.1233,0.1276,0.1297,0.1084,0.0871,0.0618,0.0253,0.0037,0.0026,-0.0035,-0.0002,0.0003,0.0007,0.0021,-0.0036,-0.0037,-0.0037,-0.0038,0,0,0.0676,0.0747,0.0781,0.0893,0.0955,0.1056,0.1126,0.1226,0.1287,0.132,0.1292,0.1248,0.0945,0.0671,0.038,0.0169,0.0134,0.0127,0.0185,0.0264,0.027,0.0072,0.0103,0,0,0,0,0]}],[{"header":{"parameterUnit":"m.s-1","parameterCategory":2,"la1":30.2991,"la2":30.254,"lo1":-89.0895,"lo2":-89.0444,"dy":0.0017,"dx":0.0017,"nx":28,"ny":28,"refTime":"2024-10-10T03:00:00:Z","depth":"4","parameterNumber":2,"parameterNumberName":"U-component_of_CURRENTS"},"data":[0,0,0,0,0,0,0,0,0,0,0,0,0,0,0,0,0,0,0,0,0,0,0,0,0,0,0,0,0,0,0,0,0,0,0,0,0,0,0,0,0,0,0,0,0,0,0,0,0,0,0,0,0,0,0,0,0,0,0.1126,0.1127,0,0.1216,0.1217,0.1218,0.1278,0.1278,0.1279,0.1279,0.1341,0.1343,0.1344,0,0,0,0,0,0,0,0,0,0,0,0,0,0.1031,0.1032,0.1126,0.1127,0.1128,0.1216,0.1217,0.1218,0.1278,0.1278,0.1279,0.128,0.1341,0.1342,0.1344,0,0,0,0,0,0,0,0,0,0,0,0,0,0.109,0.1032,0.1126,0.117,0.1175,0.1215,0.1217,0.1218,0.1277,0.1278,0.1279,0.128,0.1341,0.1342,0.1344,0.1338,0,0,0.1349,0.135,0,0,0,0,0,0,0,0,0.1086,0.1093,0.1162,0.1167,0.1173,0.1238,0.1206,0.1257,0.1277,0.1237,0.1279,0.128,0.1305,0.1309,0.1323,0.1341,0.1343,0.1349,0.135,0.1351,0.1352,0,0,0,0,0,0,0,0.1082,0.109,0.116,0.1163,0.117,0.1194,0.1203,0.1216,0.1263,0.124,0.1245,0.1258,0.1307,0.1321,0.1324,0.1344,0.1349,0.1351,0.1352,0.1353,0.1446,0.1447,0,0,0,0,0,0,0.1072,0.1086,0.1157,0.1163,0.1132,0.1195,0.1205,0.1215,0.1264,0.1273,0.1257,0.126,0.1317,0.1322,0.1327,0.1397,0.1351,0.1353,0.1354,0.1445,0.1446,0.1448,0,0,0,0,0,0,0.107,0.1077,0.1153,0.1128,0.1139,0.1196,0.1206,0.1216,0.1259,0.1277,0.1285,0.1293,0.1318,0.1324,0.1364,0.1397,0.1354,0.1355,0.1443,0.1445,0.1447,0.1489,0,0,0,0,0,0,0.1066,0.1076,0.1095,0.1127,0.114,0.1194,0.1206,0.1217,0.1264,0.127,0.131,0.1315,0.1319,0.1361,0.1366,0.1399,0.1356,0.1441,0.1444,0.1446,0.1486,0.1493,0.1498,0,0,0,0,0,0.1063,0.1079,0.1096,0.1105,0.116,0.1195,0.1204,0.1246,0.1265,0.1287,0.1316,0.1316,0.1382,0.1364,0.1368,0.1403,0.144,0.1443,0.1446,0.1483,0.1491,0.1498,0,0,0,0,0,0,0.1049,0.1088,0.1106,0.1135,0.1171,0.1206,0.1234,0.126,0.1302,0.1314,0.133,0.1337,0.1387,0.1387,0.1367,0.1439,0.1413,0.1417,0.144,0.1447,0.1453,0.1455,0.1358,0,0,0,0,0,0.1053,0.1074,0.1115,0.1139,0.116,0.1202,0.1228,0.1256,0.1289,0.1311,0.134,0.137,0.1399,0.1417,0.144,0.1473,0.148,0.15,0.1507,0.1512,0.1518,0.1555,0.1565,0.1459,0.1459,0.1459,0,0,0.1049,0.1078,0.1088,0.1138,0.1169,0.1205,0.122,0.1264,0.13,0.1308,0.137,0.1394,0.1414,0.1458,0.148,0.1464,0.1547,0.1516,0.152,0.1523,0.156,0.157,0.1579,0.1461,0.1461,0.146,0,0,0.105,0.1082,0.1105,0.114,0.1196,0.1221,0.124,0.1293,0.1326,0.1381,0.1399,0.1442,0.149,0.1509,0.1524,0.1576,0.158,0.1591,0.1622,0.1659,0.1668,0.1675,0.1699,0.1708,0.1591,0.1591,0.1591,0,0.1052,0.1083,0.1117,0.1155,0.1187,0.1231,0.1267,0.1305,0.1366,0.1397,0.1409,0.1499,0.1514,0.1566,0.1588,0.159,0.1609,0.159,0.1666,0.1674,0.1681,0.1703,0.1713,0.1594,0.1594,0.1593,0.1593,0,0.1068,0.1107,0.1123,0.1184,0.1223,0.1257,0.1313,0.136,0.1408,0.1448,0.1525,0.1553,0.1608,0.1621,0.1622,0.1686,0.1682,0.1671,0.1645,0.1695,0.1714,0.1724,0.1597,0.1596,0.1596,0.1595,0,0,0.1039,0.1118,0.1128,0.1165,0.1242,0.1273,0.1336,0.1403,0.1454,0.152,0.1586,0.1643,0.1673,0.1691,0.1704,0.1733,0.1798,0.173,0.173,0.1748,0.1882,0.1752,0.175,0.1807,0.1809,0.181,0.1875,0,0.1046,0.1104,0.115,0.1214,0.125,0.1314,0.1371,0.1441,0.1503,0.1577,0.1626,0.1695,0.1696,0.1733,0.1766,0.1794,0.1827,0.1782,0.1835,0.1836,0.1711,0.1758,0.1817,0.1882,0.1884,0.1886,0.1887,0,0.1054,0.1091,0.1146,0.1236,0.126,0.1313,0.1411,0.1468,0.1571,0.1625,0.1702,0.1748,0.1817,0.1805,0.1886,0.1863,0.1882,0.1894,0.1896,0.1766,0.1724,0.1822,0.1904,0.1903,0.1901,0.19,0.1899,0,0.1011,0.1097,0.1136,0.1166,0.1268,0.1319,0.1384,0.1488,0.155,0.1662,0.1722,0.1807,0.1866,0.1908,0.1947,0.1931,0.2021,0.1996,0.1897,0.1888,0.1966,0.1957,0.2052,0.2052,0.2052,0.2052,0.2051,0,0.0996,0.1036,0.1125,0.115,0.1217,0.1305,0.1396,0.1469,0.1585,0.1654,0.1749,0.1808,0.19,0.1961,0.1976,0.1966,0.2052,0.1909,0.1898,0.1982,0.1974,0.1973,0.1963,0.2054,0.2054,0.2053,0.2053,0,0.0949,0.1001,0.1056,0.116,0.1201,0.1252,0.1402,0.1461,0.1579,0.1671,0.1714,0.184,0.1908,0.1976,0.2045,0.1992,0.1998,0.1974,0.2069,0.206,0.1833,0.1824,0.1861,0.1857,0.1854,0.1851,0.1848,0,0.0927,0.0949,0.105,0.1082,0.1136,0.1233,0.1298,0.1439,0.15,0.1668,0.1695,0.1816,0.1881,0.188,0.1953,0.1973,0.195,0.1939,0.1872,0.1829,0.1815,0.1812,0.1808,0.1843,0.1842,0.1841,0.184,0,0.0886,0.0927,0.0968,0.1032,0.1098,0.1165,0.1271,0.1308,0.1458,0.1582,0.1639,0.1683,0.1755,0.1799,0.1835,0.1843,0.1933,0.1903,0.1909,0.1846,0.1808,0.1796,0.1797,0.1829,0.183,0.1831,0.1832,0,0.0855,0.0868,0.0926,0.0973,0.105,0.1079,0.1142,0.122,0.13,0.148,0.1494,0.1617,0.1733,0.1733,0.1764,0.1764,0.1729,0.1662,0.168,0.1694,0.1607,0.1533,0.1465,0,0,0,0,0,0.0825,0.0828,0.0867,0.0909,0.0979,0.102,0.1119,0.1182,0.1324,0.1322,0.1408,0.1465,0.1515,0.1582,0.1548,0.1684,0.1732,0.1635,0.1662,0.1764,0.1777,0.169,0,0,0,0,0,0,0.0797,0.0831,0.0838,0.085,0.087,0.0932,0.0983,0.1064,0.1078,0.1224,0.1262,0.1373,0.1447,0.1524,0.1522,0.1541,0.1524,0.1718,0.1714,0.1756,0.1768,0.1779,0.1694,0,0,0,0,0]},{"header":{"parameterUnit":"m.s-1","parameterCategory":2,"la1":30.2991,"la2":30.254,"lo1":-89.0895,"lo2":-89.0444,"dy":0.0017,"dx":0.0017,"nx":28,"ny":28,"refTime":"2024-10-10T03:00:00:Z","depth":"4","parameterNumber":3,"parameterNumberName":"V-component_of_CURRENTS"},"data":[0,0,0,0,0,0,0,0,0,0,0,0,0,0,0,0,0,0,0,0,0,0,0,0,0,0,0,0,0,0,0,0,0,0,0,0,0,0,0,0,0,0,0,0,0,0,0,0,0,0,0,0,0,0,0,0,0,0,0.0278,0.0278,0,0.0263,0.0263,0.0263,0.0255,0.0255,0.0255,0.0255,0.0242,0.0242,0.0242,0,0,0,0,0,0,0,0,0,0,0,0,0,0.0266,0.0267,0.0278,0.0278,0.0277,0.0263,0.0263,0.0263,0.0255,0.0255,0.0255,0.0255,0.0242,0.0242,0.0242,0,0,0,0,0,0,0,0,0,0,0,0,0,0.0264,0.0267,0.0278,0.0271,0.0271,0.0263,0.0263,0.0263,0.0255,0.0255,0.0255,0.0255,0.0242,0.0242,0.0242,0.0241,0,0,0.024,0.024,0,0,0,0,0,0,0,0,0.0264,0.0265,0.0273,0.0272,0.0271,0.026,0.0254,0.0255,0.0255,0.0262,0.0255,0.0255,0.0248,0.0247,0.0245,0.024,0.024,0.024,0.024,0.024,0.024,0,0,0,0,0,0,0,0.0265,0.0265,0.0273,0.0272,0.0271,0.0257,0.0258,0.0254,0.0256,0.0261,0.026,0.0258,0.0248,0.0246,0.0245,0.024,0.024,0.024,0.024,0.0239,0.0242,0.0242,0,0,0,0,0,0,0.0267,0.0266,0.0273,0.0272,0.0266,0.0258,0.0258,0.0264,0.0256,0.0255,0.0258,0.0257,0.0247,0.0246,0.0245,0.0257,0.024,0.0239,0.0239,0.0241,0.0242,0.0242,0,0,0,0,0,0,0.0267,0.0268,0.0274,0.0267,0.0267,0.0258,0.0265,0.0264,0.0264,0.0253,0.0252,0.026,0.0247,0.0245,0.0249,0.0256,0.0239,0.0239,0.0241,0.0241,0.0242,0.0273,0,0,0,0,0,0,0.0267,0.0269,0.0275,0.0268,0.0267,0.0275,0.0265,0.0264,0.0262,0.0262,0.0255,0.0253,0.0246,0.025,0.0249,0.0255,0.0238,0.024,0.0241,0.0242,0.0272,0.0275,0.0277,0,0,0,0,0,0.0267,0.0279,0.0275,0.0276,0.0276,0.0275,0.0274,0.0267,0.0263,0.0267,0.0263,0.0253,0.0252,0.025,0.0249,0.0255,0.024,0.0241,0.0242,0.0271,0.0274,0.0277,0,0,0,0,0,0,0.0275,0.0279,0.0275,0.0287,0.0282,0.0274,0.0277,0.027,0.027,0.0271,0.026,0.0259,0.0264,0.0255,0.0252,0.0257,0.0244,0.0244,0.0266,0.027,0.0272,0.0276,0.0238,0,0,0,0,0,0.028,0.0293,0.0287,0.0296,0.0295,0.0286,0.0284,0.028,0.0277,0.0277,0.0271,0.0266,0.0265,0.0264,0.0261,0.0265,0.0242,0.0267,0.027,0.0272,0.0274,0.0246,0.0247,0.0244,0.0244,0.0244,0,0,0.0287,0.0289,0.0296,0.0299,0.0295,0.0301,0.0285,0.0287,0.0293,0.0275,0.0284,0.0276,0.0268,0.0274,0.0275,0.0268,0.026,0.0273,0.0275,0.0276,0.0247,0.0247,0.0247,0.0245,0.0245,0.0245,0,0,0.0305,0.0307,0.0323,0.0321,0.0318,0.0314,0.0315,0.0309,0.0308,0.0313,0.0303,0.0299,0.0298,0.0292,0.029,0.0304,0.0276,0.0303,0.032,0.0293,0.0293,0.0293,0.026,0.0256,0.0304,0.0304,0.0304,0,0.0311,0.033,0.0325,0.0335,0.0338,0.0322,0.0335,0.0332,0.0327,0.0328,0.0322,0.0315,0.0307,0.0311,0.0316,0.0311,0.0288,0.0309,0.0297,0.0296,0.0295,0.0261,0.0256,0.0305,0.0305,0.0305,0.0305,0,0.0339,0.0351,0.0359,0.0371,0.0373,0.0381,0.0375,0.0377,0.0371,0.0365,0.0366,0.0351,0.0347,0.0342,0.0335,0.0328,0.0311,0.0303,0.0288,0.0297,0.0261,0.0255,0.0308,0.0307,0.0307,0.0306,0,0,0.0358,0.0377,0.0379,0.0392,0.0393,0.04,0.0409,0.0413,0.0421,0.0408,0.0414,0.0404,0.0388,0.0384,0.0369,0.0346,0.0317,0.0324,0.0322,0.0291,0.0251,0.0236,0.0228,0.0306,0.0305,0.0305,0.0226,0,0.0379,0.0412,0.0414,0.0442,0.0456,0.0448,0.046,0.0459,0.0454,0.0454,0.0429,0.043,0.0407,0.0406,0.0378,0.0338,0.0306,0.0339,0.0247,0.0244,0.023,0.0223,0.0303,0.0222,0.0221,0.022,0.022,0,0.0401,0.0422,0.0458,0.0481,0.0487,0.0502,0.0517,0.0526,0.0516,0.0512,0.0497,0.0474,0.0447,0.0424,0.0346,0.0368,0.0311,0.0271,0.0267,0.0239,0.022,0.0212,0.021,0.0211,0.0211,0.0212,0.0213,0,0.0417,0.045,0.0483,0.0491,0.0516,0.0532,0.0544,0.0544,0.0561,0.0549,0.0553,0.0509,0.0494,0.042,0.0338,0.034,0.0242,0.0234,0.0162,0.016,0.0183,0.0184,0.0168,0.0169,0.0169,0.0169,0.0169,0,0.0433,0.0459,0.0497,0.0515,0.0556,0.0561,0.06,0.06,0.0611,0.063,0.0587,0.0585,0.0492,0.0427,0.0343,0.0237,0.0242,0.0161,0.0139,0.0198,0.0202,0.0179,0.0181,0.0166,0.0167,0.0167,0.0168,0,0.0438,0.0463,0.0506,0.0549,0.0565,0.0596,0.0644,0.0669,0.0671,0.0693,0.0693,0.0642,0.0556,0.045,0.0328,0.025,0.0147,0.0105,0.017,0.0154,0.0079,0.0084,0.0017,0.0015,0.0014,0.0014,0.0013,0,0.0443,0.0467,0.0534,0.0568,0.0591,0.064,0.0674,0.0698,0.0726,0.0727,0.0736,0.0666,0.0615,0.0431,0.0316,0.0144,0.0119,0.0054,0.0069,0.0078,0.0063,0.007,0.0076,0.0011,0.0011,0.0011,0.001,0,0.045,0.0479,0.0517,0.0589,0.0638,0.0696,0.0744,0.077,0.0794,0.0798,0.0768,0.0673,0.0572,0.0432,0.0294,0.0173,0.0092,0.0043,0.0045,0.0058,0.007,0.0059,0.0066,0.0007,0.0007,0.0008,0.0008,0,0.0458,0.0485,0.054,0.0604,0.0669,0.0728,0.0758,0.0788,0.0814,0.0811,0.0799,0.0691,0.0631,0.0446,0.0323,0.0199,0.0166,0.0118,0.0115,0.0117,0.017,0.0202,0.0158,0,0,0,0,0,0.0462,0.0492,0.0549,0.0619,0.0687,0.0729,0.0793,0.082,0.0842,0.0824,0.0814,0.0718,0.0535,0.0462,0.0335,0.0299,0.0141,0.0144,0.0083,-0.0012,-0.0008,0.0036,0,0,0,0,0,0,0.0462,0.0512,0.0542,0.0621,0.0672,0.0747,0.0794,0.0814,0.0807,0.0809,0.072,0.0672,0.0503,0.0607,0.0328,0.0291,0.0231,0.0063,0.0059,-0.0015,-0.0011,-0.0008,0.0039,0,0,0,0,0]}]]